Погода в Токко

Россия / Республика Саха (Якутия)     59°58′49″N   119°50′05″E
темп.,
°C
ветер,
м/с
пор.,
м/с
влажн.,
%
обл.,
%
осадки,
мм/ч
давл.,
гПа
погр.,
м
27 февраля, сб
сб2700:00−24зсз1195100 0.0 102320
03:00−24сз1195100 0.0 102220
06:00−23зсз1196100 0.0 102224
09:00−21зсз2698100 0.4 1023379
12:00−20зсз4793100 0.6 1023744
15:00−20сз5990100 0.9 10221088
18:00−20сз41091100 0.3 10241258
21:00−22зсз51187100 0.4 10251006
28 февраля, вс
вс2800:00−23зсз41184100 0.0 10271033
03:00−26з41288100 0.0 1028584
06:00−30з399261 0.0 1030198
09:00−30зюз279539 0.0 1032183
12:00−24з5108442 0.0 10331233
15:00−23з487871 0.1 10321477
18:00−24з2886100 0.1 1033423
21:00−29зюз229377 0.1 103419
1 марта, пн
пн100:00−30зюз129751 0.0 103419
03:00−32зюз229860 0.0 103419
06:00−33зюз129855 0.0 103419
09:00−32юз119536 0.0 103419
12:00−24зюз148517 0.0 1032492
15:00−22з247757 0.0 10301413
18:00−26з1187100 0.0 102919
21:00−31ююз118959 0.0 102919
2 марта, вт
вт200:00−32ююв119459 0.0 102819
03:00−33юв1110069 0.0 102719
06:00−35всв1110085 0.0 102619
09:00−34св119958 0.0 102519
12:00−26всв129070 0.0 1022317
15:00−23всв248785 0.0 1020575
18:00−25ссв2497100 0.0 1020154
21:00−26ссв2398100 0.1 102195
3 марта, ср
ср300:00−30ссв2397100 0.0 102141
03:00−32ссв239899 0.0 102151
06:00−34ссв229987 0.0 102333
09:00−34с229987 0.0 102461
12:00−27ссв239186 0.0 1023333
15:00−24с248993 0.0 1023645
18:00−27ссз2293100 0.0 102446
21:00−33сз129687 0.0 102619